Location: Buch
(50.1863°N, 11.0141°E)
Time: 10:28:30
(UTC+00:00)

Cosmos 1470 - Pass Details

Date: 18 January 2020
Orbit: 521 x 543 km, 82.5° (Epoch: 18 February)

Event Time Altitude Azimuth Distance (km) Brightness Sun altitude
Rises 04:18:10 0° 176° (S) 2,688 6.4 -26.5°
Reaches altitude 10° 04:20:20 10° 171° (S) 1,803 5.5 -26.1°
Maximum altitude 04:24:12 52° 95° (E) 679 3.5 -25.5°
Drops below altitude 10° 04:28:06 10° 19° (NNE) 1,823 5.6 -24.9°
Sets 04:30:18 0° 15° (NNE) 2,721 6.5 -24.5°
